Flag for Germany Weather past 2 weeks in Stralsund, Mecklenburg-Western Pomerania, Germany

Now
40 °F

Overcast.


Feels Like: 37 °F
Forecast: 38 / 49 °F
Wind: 5 mph from Southwest

Location: Greifswald

Current Time: Mar 6, 2015 at 9:22:12 AM

Latest Report: Mar 6, 2015 at 9:00 AM


Visibility: 6 mi

Pressure: 30.46 "Hg

Humidity: 89%

Dew point: 37 °F

Location of StralsundLocation

Historic Weather in Stralsund — Graph

°F

Stralsund temperature yesterday

Maximum temperature yesterday: 42 °F (at 4:00 PM)
Minimum temperature yesterday: 33 °F (at 7:00 AM)
Average temperature yesterday: 38 °F

Past Weeks' High & Low Weather Summary

 TemperatureHumidityPressure
High49 °F (Feb 27, 3:00 PM)98% (Feb 26, 2:00 AM)30.51 "Hg (Feb 26, 2:00 AM)
Low29 °F (Feb 26, 3:00 AM)43% (Feb 19, 3:00 PM)29.26 "Hg (Feb 21, 3:00 PM)
Average38 °F80%29.85 "Hg
* Reported Feb 19 8:00 AM — Mar 6 8:00 AM, Stralsund, Weather by CustomWeather, © 2015

Note: Actual official high and low records may vary slightly from our data, if they occured in-between our weather recording intervals... More about our weather records

Advertising

Stralsund weather history for previous 24 hours

 ConditionsComfort  
Time TempWeatherWind HumidityBarometerVisibility
8:00 AM
Fri, Mar 6
40 °FOvercast.3 mph88%30.46 "Hg8 mi
7:00 AM39 °FLight rain. Overcast.2 mph88%30.47 "Hg9 mi
6:00 AM38 °FOvercast.2 mph90%30.47 "Hg12 mi
5:00 AM37 °FOvercast.3 mph90%30.47 "Hg15 mi
4:00 AM38 °FOvercast.3 mph87%30.47 "Hg15 mi
3:00 AM37 °FOvercast.2 mph88%30.49 "Hg16 mi
2:00 AM36 °FOvercast.2 mph89%30.50 "Hg17 mi
1:00 AM35 °FOvercast.2 mph93%30.50 "Hg14 mi
12:00 AM36 °FPassing clouds.2 mph92%30.51 "Hg14 mi
10:00 PM
Thu, Mar 5
N/APassing clouds.N/AN/AN/A1 mi
9:00 PM37 °FPassing clouds.2 mph91%30.51 "Hg12 mi
8:00 PM39 °FPassing clouds.3 mph84%30.51 "Hg12 mi
7:00 PM39 °FPassing clouds.2 mph80%30.50 "Hg22 mi
6:00 PM39 °FPassing clouds.2 mph76%30.49 "Hg22 mi
5:00 PM41 °FScattered clouds.2 mph72%30.47 "Hg17 mi
4:00 PM42 °FPartly sunny.5 mph72%30.47 "Hg25 mi
3:00 PM41 °FPartly sunny.7 mph72%30.46 "Hg28 mi
2:00 PM41 °FPartly sunny.6 mph74%30.45 "Hg22 mi
1:00 PM40 °FOvercast.6 mph75%30.45 "Hg25 mi
12:00 PM41 °FOvercast.6 mph76%30.44 "Hg25 mi
11:00 AM39 °FOvercast.5 mph80%30.43 "Hg19 mi
9:00 AM36 °FLow clouds.3 mph89%30.41 "Hg10 mi
Weather by CustomWeather, © 2015

See weather overviewHow to use our weather pages